Snowfall_Accumulation
0.0 0.0 0.0 0.0 0.0 0.0 0.0 0.0 0.0 0.0 0.0 0.0 0.0 0.0 0.0 0.0 0.0 0.0 0.0 nan nan nan nan nan nan nan nan nan nan nan nan nan nan nan nan nan nan nan
0.0 0.0 0.0 0.0 0.0 0.0 0.0 0.0 0.0 0.0 0.0 0.0 0.0 0.0 0.0 0.0 0.0 0.0 0.0 nan nan nan nan nan nan nan nan nan nan nan nan nan nan nan nan nan nan nan
0.0 0.0 0.0 0.0 0.0 0.0 0.0 0.0 0.0 0.0 0.0 0.0 0.0 0.0 0.0 0.0 0.0 0.0 0.0 0.0 0.0 nan nan nan nan nan nan nan nan nan nan nan nan nan nan nan nan nan
0.0 0.0 0.0 0.0 0.0 0.0 0.0 0.0 0.0 0.0 0.0 0.0 0.0 0.0 0.0 0.0 0.0 0.0 0.0 0.0 0.0 nan nan nan nan nan nan nan nan nan nan nan nan nan nan nan nan nan
0.0 0.0 0.0 0.0 0.0 0.0 0.0 0.0 0.0 0.0 0.0 0.0 0.0 0.0 0.0 0.0 0.0 0.0 0.0 0.0 0.0 nan nan nan nan nan nan nan nan nan nan nan nan nan nan nan nan nan
0.0 0.0 0.0 0.0 0.0 0.0 0.0 0.0 0.0 0.0 0.0 0.0 0.0 0.0 0.0 0.0 0.0 0.0 0.0 0.0 0.0 0.0 nan nan nan nan nan nan nan nan nan nan nan nan nan nan nan nan
0.0 0.0 0.0 nan nan nan 0.0 0.0 0.0 0.0 0.0 0.0 0.0 0.0 0.0 0.0 0.0 0.0 0.0 0.0 0.0 0.0 0.0 0.0 0.0 0.0 0.0 nan nan nan nan nan nan nan nan nan nan nan
0.0 0.0 0.0 0.0 0.0 nan nan nan nan 0.0 0.0 0.0 0.0 0.0 0.0 0.0 0.0 0.0 0.0 0.0 0.0 0.0 0.0 0.8 0.0 0.0 0.0 0.0 nan nan nan nan nan nan nan nan nan nan
0.0 0.0 0.0 0.0 nan 0.0 nan nan nan nan nan 0.0 0.0 0.1 0.1 0.1 0.1 0.0 0.0 0.0 0.2 0.5 0.0 4.3 1.4 3.4 0.9 0.2 nan nan nan nan nan nan nan nan nan nan
0.0 0.0 0.0 0.0 0.0 0.0 0.0 0.4 1.3 1.7 2.1 1.1 1.7 3.2 1.6 0.6 0.1 0.0 0.1 1.4 2.6 4.5 1.3 7.6 4.4 6.6 2.7 1.1 nan nan nan nan nan nan nan nan nan nan
0.5 0.4 0.3 0.1 nan nan 0.3 1.2 2.6 6.3 nan nan nan nan nan nan nan 0.3 1.4 1.0 6.3 11.9 9.8 8.7 9.4 8.7 7.4 6.2 3.4 nan nan nan nan nan nan nan nan nan
2.2 1.5 nan 1.0 nan nan 0.4 0.9 5.3 10.0 8.1 6.8 6.2 5.7 nan nan nan 4.0 1.6 3.7 7.7 10.6 9.1 8.6 8.0 7.3 9.9 6.2 5.4 4.7 4.3 nan nan nan nan nan nan 0.9
7.0 6.3 4.5 nan nan nan nan 1.4 6.4 7.9 7.0 7.4 6.6 6.3 5.7 5.1 6.0 5.7 5.2 5.2 6.6 8.2 7.1 6.0 7.4 6.8 6.6 6.5 5.0 4.2 3.3 3.4 2.4 1.7 nan nan nan 0.4
8.3 8.3 11.4 nan nan nan 3.9 nan nan 2.8 6.8 7.3 6.8 7.0 6.3 5.9 5.2 4.7 4.8 5.1 4.5 5.1 3.8 3.0 6.7 3.8 4.6 5.3 4.6 3.1 2.6 1.8 1.2 0.7 0.8 nan nan nan
12.6 16.2 nan nan nan 1.8 nan nan 3.2 7.3 8.7 11.2 10.8 9.6 7.3 5.3 3.1 2.9 2.0 1.9 1.6 1.7 1.5 1.6 3.2 2.7 2.9 3.4 3.3 2.3 1.8 1.1 0.7 0.5 0.4 0.5 0.5 0.6
2.7 7.5 3.9 6.2 3.3 4.1 4.1 4.9 5.0 6.0 7.2 8.2 7.3 5.3 3.7 3.6 3.6 3.0 3.8 4.2 4.2 3.9 2.3 2.3 2.2 1.6 3.0 1.6 1.1 1.6 0.7 0.9 0.3 0.4 0.6 0.7 0.6 0.7
5.0 7.3 7.2 6.7 6.6 5.5 5.0 4.6 3.9 3.5 5.0 5.2 4.9 3.8 2.8 1.7 1.8 1.0 1.2 1.4 3.6 2.6 3.7 1.4 0.9 0.9 1.0 0.8 2.4 0.9 0.7 0.6 0.3 0.4 0.8 1.3 1.5 1.1
4.2 6.4 10.1 9.6 6.1 3.9 4.3 3.8 3.1 2.3 2.0 2.1 3.0 2.0 2.1 2.4 1.9 1.7 1.6 2.0 2.4 1.5 1.0 0.7 1.0 1.0 0.6 0.5 0.4 0.7 0.4 0.4 0.4 0.4 0.4 2.1 1.4 0.8
5.5 4.7 9.4 9.9 4.6 1.8 1.8 1.7 3.2 2.1 0.2 1.7 2.7 4.1 3.8 2.3 2.4 1.7 1.8 1.5 1.7 0.8 0.5 0.6 0.7 1.5 5.5 8.2 0.4 nan 1.2 0.8 1.0 1.1 0.5 1.1 2.5 1.1
2.3 3.8 5.9 5.3 2.2 1.7 1.7 1.9 2.2 3.5 3.9 2.9 4.4 6.4 7.4 4.6 4.2 2.7 2.3 3.5 1.7 0.8 0.7 0.3 0.5 0.7 2.9 7.6 9.7 2.7 nan 2.1 1.8 1.6 1.1 0.7 1.4 nan
2.0 1.9 4.1 3.3 2.5 1.7 6.8 8.2 10.7 9.4 8.6 12.4 6.2 6.6 15.2 3.4 4.3 3.3 3.9 3.2 2.4 1.1 1.2 0.8 0.5 0.3 0.6 1.7 14.8 4.5 1.9 nan 0.4 1.2 1.3 2.2 2.2 1.1
4.4 2.9 2.7 2.7 4.5 4.3 9.8 15.8 14.7 14.0 9.7 6.5 13.2 18.9 16.5 6.8 6.6 5.5 6.4 6.3 2.2 2.2 1.3 0.8 0.4 0.4 0.8 1.7 2.2 6.9 1.8 1.2 nan nan nan nan 3.2 6.4
8.1 3.7 5.8 7.5 9.3 9.3 3.9 9.2 4.0 8.2 7.5 7.4 6.6 6.9 30.9 8.7 4.6 4.8 5.7 4.3 2.6 2.5 1.6 1.7 0.9 0.7 0.9 0.9 1.8 4.0 1.7 4.0 1.1 1.4 1.6 nan nan nan
Water_Equivalent
0.00 0.00 0.00 0.00 0.00 0.00 0.00 0.00 0.00 0.00 0.00 0.00 0.00 0.00 0.00 0.00 0.00 0.00 0.00 nan nan nan nan nan nan nan nan nan nan nan nan nan nan nan nan nan nan nan
0.00 0.00 0.00 0.00 0.00 0.00 0.00 0.00 0.00 0.00 0.00 0.00 0.00 0.00 0.00 0.00 0.00 0.00 0.00 nan nan nan nan nan nan nan nan nan nan nan nan nan nan nan nan nan nan nan
0.00 0.00 0.00 0.00 0.00 0.00 0.00 0.00 0.00 0.00 0.00 0.00 0.00 0.00 0.00 0.00 0.00 0.00 0.00 0.00 0.00 nan nan nan nan nan nan nan nan nan nan nan nan nan nan nan nan nan
0.00 0.00 0.00 0.00 0.00 0.00 0.00 0.00 0.00 0.00 0.00 0.00 0.00 0.00 0.00 0.00 0.00 0.00 0.00 0.00 0.00 nan nan nan nan nan nan nan nan nan nan nan nan nan nan nan nan nan
0.00 0.00 0.00 0.00 0.00 0.00 0.00 0.00 0.00 0.00 0.00 0.00 0.00 0.00 0.00 0.00 0.00 0.00 0.00 0.00 0.00 nan nan nan nan nan nan nan nan nan nan nan nan nan nan nan nan nan
0.00 0.00 0.00 0.00 0.00 0.00 0.00 0.00 0.00 0.00 0.00 0.00 0.00 0.00 0.00 0.00 0.00 0.00 0.00 0.00 0.00 0.00 nan nan nan nan nan nan nan nan nan nan nan nan nan nan nan nan
0.00 0.00 0.00 nan nan nan 0.00 0.00 0.00 0.00 0.00 0.00 0.00 0.00 0.00 0.00 0.00 0.00 0.00 0.00 0.00 0.00 0.00 0.00 0.00 0.00 0.00 nan nan nan nan nan nan nan nan nan nan nan
0.00 0.00 0.00 0.00 0.00 nan nan nan nan 0.00 0.00 0.00 0.00 0.00 0.00 0.00 0.00 0.00 0.00 0.00 0.01 0.00 0.00 0.15 0.00 0.01 0.00 0.00 nan nan nan nan nan nan nan nan nan nan
0.00 0.00 0.00 0.00 nan 0.00 nan nan nan nan nan 0.00 0.00 0.04 0.01 0.03 0.02 0.00 0.00 0.00 0.06 0.12 0.01 0.78 0.26 0.63 0.21 0.03 nan nan nan nan nan nan nan nan nan nan
0.00 0.00 0.00 0.00 0.00 0.00 0.01 0.09 0.25 0.33 0.39 0.22 0.33 0.62 0.36 0.15 0.04 0.01 0.02 0.29 0.56 0.89 0.29 1.24 0.88 1.09 0.55 0.26 nan nan nan nan nan nan nan nan nan nan
0.08 0.08 0.06 0.02 nan nan 0.06 0.21 0.45 1.02 nan nan nan nan nan nan nan 0.12 0.41 0.33 1.33 1.87 1.66 1.52 1.63 1.52 1.40 1.26 0.88 nan nan nan nan nan nan nan nan nan
0.35 0.29 nan 0.21 nan nan 0.12 0.20 0.91 1.51 1.41 1.27 1.17 1.07 nan nan nan 0.76 0.43 0.84 1.39 1.76 1.58 1.57 1.48 1.45 1.55 1.11 0.96 0.87 0.81 nan nan nan nan nan nan 0.17
1.15 1.07 0.87 nan nan nan nan 0.30 1.10 1.52 1.33 1.33 1.21 1.18 1.06 0.95 1.09 1.03 0.92 0.97 1.16 1.24 1.17 1.17 1.22 1.15 1.13 0.98 0.81 0.70 0.59 0.59 0.42 0.29 nan nan nan 0.07
1.44 1.50 2.18 nan nan nan 0.88 nan nan 0.81 1.65 1.72 1.55 1.43 1.21 1.06 0.91 0.84 0.80 0.82 0.75 0.76 0.64 0.55 1.11 0.66 0.75 0.83 0.70 0.53 0.44 0.32 0.21 0.11 0.17 nan nan nan
2.24 2.94 nan nan nan 0.58 nan nan 1.07 1.44 1.70 1.99 1.76 1.51 1.23 0.92 0.55 0.50 0.35 0.34 0.27 0.29 0.30 0.34 0.62 0.53 0.56 0.59 0.53 0.37 0.30 0.19 0.14 0.12 0.10 0.15 0.16 0.18
0.76 1.43 1.29 1.30 1.10 1.09 0.90 0.91 0.91 1.03 1.13 1.23 1.04 0.76 0.58 0.57 0.57 0.46 0.58 0.64 0.63 0.54 0.34 0.37 0.34 0.25 0.49 0.27 0.19 0.25 0.13 0.17 0.07 0.11 0.16 0.20 0.18 0.22
1.25 1.49 1.32 1.19 1.07 0.87 0.80 0.78 0.66 0.62 0.79 0.86 0.82 0.61 0.46 0.31 0.31 0.22 0.25 0.28 0.62 0.41 0.62 0.22 0.12 0.12 0.16 0.11 0.45 0.15 0.13 0.11 0.07 0.10 0.19 0.35 0.44 0.32
0.83 1.06 1.53 1.53 0.97 0.60 0.65 0.59 0.50 0.46 0.37 0.40 0.56 0.38 0.39 0.45 0.36 0.36 0.34 0.40 0.42 0.27 0.19 0.15 0.24 0.23 0.15 0.12 0.11 0.14 0.08 0.10 0.10 0.09 0.11 0.48 0.34 0.22
0.98 0.78 1.43 1.53 0.76 0.31 0.31 0.29 0.49 0.37 0.04 0.35 0.52 0.70 0.67 0.44 0.48 0.37 0.40 0.34 0.36 0.19 0.11 0.14 0.16 0.34 0.87 1.19 0.10 nan 0.27 0.21 0.26 0.27 0.14 0.26 0.51 0.27
0.40 0.63 0.89 0.83 0.36 0.29 0.28 0.34 0.39 0.62 0.66 0.51 0.76 1.06 1.22 0.77 0.75 0.49 0.44 0.61 0.34 0.18 0.15 0.08 0.12 0.15 0.47 1.16 1.78 0.65 nan 0.50 0.43 0.38 0.26 0.18 0.35 nan
0.32 0.30 0.59 0.48 0.38 0.27 1.01 1.19 1.54 1.39 1.35 1.87 1.01 1.06 2.51 0.60 0.75 0.58 0.62 0.64 0.56 0.21 0.22 0.16 0.11 0.09 0.14 0.40 2.73 0.98 0.49 nan 0.10 0.24 0.25 0.40 0.40 0.21
0.60 0.40 0.39 0.38 0.62 0.59 1.42 2.32 2.14 2.10 1.43 1.00 1.98 3.01 2.73 1.12 0.99 0.84 1.03 1.03 0.37 0.39 0.22 0.15 0.08 0.09 0.17 0.32 0.42 1.45 0.42 0.32 nan nan nan nan 0.53 0.85
1.11 0.52 0.80 1.04 1.33 1.36 0.60 1.29 0.58 1.20 1.06 1.06 0.97 1.02 5.17 1.19 0.73 0.76 0.92 0.71 0.42 0.41 0.27 0.29 0.15 0.13 0.17 0.17 0.34 0.75 0.29 0.79 0.25 0.30 0.39 nan nan nan
SL_Ratio
nan nan nan nan nan nan nan nan nan nan nan nan nan nan nan nan nan nan nan nan nan nan nan nan nan nan nan nan nan nan nan nan nan nan nan nan nan nan
nan nan nan nan nan nan nan nan nan nan nan nan nan nan nan nan nan nan nan nan nan nan nan nan nan nan nan nan nan nan nan nan nan nan nan nan nan nan
nan nan nan nan nan nan nan nan nan nan nan nan nan nan nan nan nan nan nan nan nan nan nan nan nan nan nan nan nan nan nan nan nan nan nan nan nan nan
nan nan nan nan nan nan nan nan nan nan nan nan nan nan nan nan nan nan nan nan nan nan nan nan nan nan nan nan nan nan nan nan nan nan nan nan nan nan
nan nan nan nan nan nan nan nan nan nan nan nan nan nan nan nan nan nan nan nan nan nan nan nan nan nan nan nan nan nan nan nan nan nan nan nan nan nan
nan nan nan nan nan nan nan nan nan nan nan nan nan nan nan nan nan nan nan nan nan nan nan nan nan nan nan nan nan nan nan nan nan nan nan nan nan nan
nan nan nan nan nan nan nan nan nan nan nan nan nan nan nan nan nan nan nan nan nan nan nan nan nan nan nan nan nan nan nan nan nan nan nan nan nan nan
nan nan nan nan nan nan nan nan nan nan nan nan nan nan nan nan nan nan nan nan 2.4 nan nan 5.3 nan 5.0 3.3 nan nan nan nan nan nan nan nan nan nan nan
nan nan nan nan nan nan nan nan nan nan nan nan 0.0 3.9 3.8 3.9 3.7 nan nan nan 2.9 4.3 3.1 5.6 5.2 5.3 4.4 4.5 nan nan nan nan nan nan nan nan nan nan
5.0 5.0 nan nan nan nan 4.6 4.9 5.2 5.2 5.2 5.0 5.2 5.2 4.5 3.7 3.3 3.0 3.4 4.9 4.6 5.0 4.5 6.2 5.0 6.1 4.8 4.4 nan nan nan nan nan nan nan nan nan nan
6.0 5.6 5.3 3.4 nan nan 4.6 5.6 5.8 6.2 nan nan nan nan nan nan nan 2.5 3.3 3.0 4.7 6.4 5.9 5.7 5.8 5.7 5.3 4.9 3.8 nan nan nan nan nan nan nan nan nan
6.2 5.1 nan 4.7 nan nan 3.2 4.7 5.9 6.6 5.8 5.3 5.3 5.4 nan nan nan 5.2 3.6 4.4 5.5 6.0 5.8 5.5 5.4 5.0 6.4 5.5 5.6 5.4 5.3 nan nan nan nan nan nan 5.5
6.0 5.9 5.2 nan nan nan nan 4.8 5.9 5.2 5.3 5.5 5.4 5.4 5.4 5.4 5.5 5.5 5.7 5.3 5.8 6.6 6.1 5.1 6.0 5.9 5.9 6.7 6.2 6.0 5.7 5.8 5.6 5.8 nan nan nan 5.7
5.7 5.5 5.2 nan nan nan 4.4 nan nan 3.4 4.1 4.3 4.4 4.9 5.2 5.5 5.7 5.6 6.0 6.2 6.0 6.7 6.0 5.4 6.0 5.8 6.1 6.4 6.6 6.0 5.9 5.7 5.6 6.1 4.8 nan nan nan
5.6 5.5 nan nan nan 3.0 nan nan 3.0 5.1 5.1 5.6 6.2 6.4 6.0 5.8 5.7 5.8 5.8 5.8 5.9 5.8 5.1 4.9 5.1 5.0 5.1 5.8 6.2 6.2 6.0 5.8 4.7 4.5 3.8 3.2 3.2 3.4
3.6 5.2 3.0 4.8 3.0 3.8 4.5 5.4 5.4 5.8 6.3 6.6 7.0 7.0 6.4 6.3 6.4 6.6 6.5 6.6 6.6 7.2 6.7 6.4 6.5 6.4 6.2 6.0 5.9 6.3 5.5 5.2 4.6 4.1 3.7 3.3 3.1 2.9
4.0 4.9 5.4 5.7 6.2 6.4 6.2 6.0 5.8 5.7 6.3 6.1 6.0 6.2 6.0 5.6 5.6 4.8 4.7 4.9 5.7 6.3 6.0 6.3 7.7 7.5 6.1 7.2 5.4 6.0 5.3 5.1 3.9 4.0 4.1 3.8 3.5 3.3
5.1 6.0 6.6 6.3 6.3 6.4 6.6 6.5 6.2 5.1 5.6 5.3 5.3 5.4 5.5 5.3 5.2 4.8 4.7 5.1 5.7 5.5 5.2 4.8 4.4 4.6 4.3 4.4 4.0 4.8 5.0 4.3 4.3 4.3 3.6 4.3 4.1 3.5
5.6 6.0 6.6 6.5 6.1 5.9 5.8 5.9 6.5 5.6 5.7 4.8 5.2 5.8 5.6 5.2 4.9 4.7 4.5 4.5 4.7 4.5 4.4 4.1 4.2 4.4 6.3 6.9 3.7 nan 4.3 3.9 3.9 4.0 3.7 4.2 4.8 4.1
5.6 5.9 6.6 6.4 6.0 6.1 5.9 5.7 5.7 5.7 5.9 5.7 5.8 6.0 6.0 6.0 5.6 5.6 5.2 5.7 5.1 4.4 4.4 4.2 4.2 4.5 6.1 6.5 5.5 4.2 nan 4.1 4.2 4.3 4.4 4.0 4.1 nan
6.0 6.4 6.9 6.8 6.6 6.2 6.7 6.9 6.9 6.8 6.4 6.6 6.2 6.2 6.1 5.7 5.7 5.7 6.4 4.9 4.2 5.2 5.6 5.2 4.3 3.0 4.5 4.3 5.4 4.6 3.8 nan 3.9 5.1 5.0 5.4 5.4 4.9
7.3 7.2 7.0 7.1 7.3 7.3 6.9 6.8 6.9 6.7 6.8 6.5 6.7 6.3 6.0 6.1 6.7 6.6 6.2 6.1 6.1 5.8 6.0 5.3 4.5 4.5 4.5 5.4 5.4 4.7 4.3 3.7 nan nan nan nan 6.1 7.6
7.3 7.1 7.2 7.2 7.0 6.8 6.5 7.1 7.0 6.8 7.1 7.0 6.9 6.8 6.0 7.3 6.3 6.2 6.1 6.1 6.2 6.1 5.9 6.0 5.7 5.3 5.0 5.3 5.4 5.3 5.7 5.1 4.6 4.7 4.0 nan nan nan